SCP
0 0 0 0 0 1 1 1 1 1 1 1 1 1 1 1 1 1 1 1 1 1 1 1 1 1 1 1 1 1 1 1 1 2 2 2 2 2 1 2 2 2 2
0 0 0 0 0 1 1 1 1 1 1 1 1 2 1 1 1 1 1 1 1 1 1 1 1 1 1 1 1 1 1 1 2 2 2 2 2 2 2 2 2 2 2
0 0 0 1 1 1 1 1 1 1 1 1 1 2 2 1 1 1 1 1 1 1 1 1 1 1 1 1 1 1 1 1 2 3 3 2 2 2 2 2 2 2 3
0 0 1 1 1 1 1 1 1 1 1 1 1 1 1 1 2 2 2 1 1 1 1 1 1 1 1 1 1 1 1 1 2 3 3 2 1 1 2 2 3 3 3
0 1 1 1 1 1 1 1 1 1 1 1 1 1 1 2 1 2 2 1 1 1 1 1 1 1 1 1 1 1 1 1 2 2 2 2 1 2 2 3 3 3 4
0 1 1 1 1 1 1 1 1 2 2 2 2 2 2 2 1 1 1 1 1 1 1 1 1 1 1 1 1 1 1 1 1 1 2 1 1 2 2 3 3 4 4
0 0 1 1 1 1 1 1 1 2 2 2 2 2 2 2 1 1 1 1 1 1 1 1 1 1 1 1 1 1 1 1 1 1 1 1 2 2 3 3 4 4 4
0 0 0 1 1 1 1 1 1 1 2 2 2 2 2 1 1 1 1 1 1 1 1 1 1 1 0 0 0 0 0 0 0 1 1 1 2 3 3 4 4 5 5
0 0 0 0 1 1 1 1 1 1 1 1 1 1 1 1 1 1 1 1 1 1 1 1 1 0 0 0 0 0 0 0 0 0 0 1 2 3 3 4 5 5 5
0 0 0 0 0 1 1 1 1 1 1 1 1 1 1 1 1 1 1 1 1 1 1 1 1 0 1 1 1 0 0 0 0 0 0 1 2 2 3 3 4 4 4
0 0 0 1 1 1 1 1 1 1 1 1 1 1 1 1 1 1 1 1 1 1 1 1 1 1 0 1 1 0 0 0 0 0 0 1 1 1 2 2 3 4 4
0 0 0 1 1 1 1 1 1 1 1 1 1 1 1 1 1 1 1 1 1 1 1 1 1 1 0 0 0 0 0 0 0 0 0 0 1 1 1 2 2 3 3
0 0 0 1 1 1 1 1 1 1 1 1 1 1 1 1 1 1 1 1 1 1 1 1 1 0 0 0 0 0 0 0 0 0 0 0 0 1 1 1 2 2 2
1 0 0 0 1 1 1 1 1 1 1 1 1 1 1 1 1 1 1 1 0 0 0 0 0 0 0 0 0 0 0 0 0 0 0 0 0 0 0 1 1 1 1
1 1 1 1 1 1 1 1 1 1 1 1 1 1 1 1 1 1 0 0 0 0 0 0 0 0 0 0 0 0 0 0 0 0 0 0 0 0 0 0 0 0 1
2 1 1 1 1 1 1 1 1 1 1 1 1 2 2 1 1 1 0 0 0 0 0 0 0 0 0 0 0 0 0 0 0 0 0 0 0 0 0 0 0 0 0
2 1 1 1 1 1 2 2 2 2 2 2 2 2 2 2 1 1 1 0 0 0 0 0 0 0 0 0 0 0 0 0 0 0 0 0 0 0 0 0 0 0 0
2 1 1 1 1 1 2 2 2 2 2 2 2 2 2 2 1 1 1 1 0 0 0 0 0 0 0 0 0 0 0 0 0 0 0 0 0 0 0 0 0 0 0
2 1 2 2 1 2 2 2 2 2 2 2 2 2 2 2 2 1 1 1 0 0 0 0 0 0 0 0 0 0 0 0 0 0 0 0 0 0 0 0 0 0 0
2 2 1 1 1 1 2 2 2 2 2 2 2 2 2 2 2 1 1 1 0 0 0 0 0 0 0 0 0 0 0 0 0 0 0 0 0 0 0 0 0 0 0
2 2 1 1 1 1 1 1 1 1 2 2 2 2 2 2 2 1 1 0 0 0 0 0 0 0 0 0 0 0 0 0 0 0 0 0 0 0 0 0 0 0 0
2 1 1 1 2 2 2 1 1 1 1 2 2 2 2 1 1 1 1 0 0 0 0 0 0 0 0 0 0 0 0 0 0 0 0 0 0 0 0 0 0 0 0
1 1 2 2 2 2 2 2 1 1 1 1 1 1 1 1 1 1 1 0 0 0 0 0 0 0 0 0 0 0 0 0 0 0 0 0 0 0 0 0 0 0 0
1 1 2 2 2 2 2 2 2 1 1 1 1 1 1 1 1 1 1 0 0 0 0 0 0 0 0 0 0 0 0 0 0 0 0 0 0 0 0 0 0 0 0
1 1 1 1 1 1 2 2 2 1 1 1 1 0 0 1 1 1 1 0 0 0 0 0 0 0 0 0 0 0 0 0 0 0 0 0 0 0 0 0 0 0 0
1 1 1 1 1 1 1 2 2 1 1 1 1 1 1 1 1 1 1 0 0 0 0 0 0 0 0 0 0 0 0 0 0 0 0 0 0 0 0 0 0 0 0
Wind_Speed
1 1 4 5 7 8 8 9 9 10 10 10 11 12 12 12 12 11 11 11 11 11 11 10 11 10 10 9 9 8 8 8 8 8 8 7 7 7 7 7 6 4 7
3 1 4 6 7 8 9 8 8 9 9 10 11 11 11 11 11 11 11 11 11 10 11 10 10 10 11 10 9 9 9 8 8 8 7 6 6 6 7 7 7 5 7
4 2 3 6 8 8 9 8 8 8 9 10 10 11 11 11 11 11 11 11 11 10 11 10 10 10 11 10 10 10 9 8 8 8 7 2 2 5 7 8 8 8 7
5 3 4 7 8 8 8 8 8 8 9 10 10 11 11 11 11 11 10 11 11 11 10 10 10 10 11 11 11 10 9 8 8 8 4 2 2 6 8 9 9 8 8
4 3 4 7 8 8 8 9 9 9 9 9 10 11 11 11 11 11 11 10 10 10 10 10 9 10 10 11 10 10 10 10 10 7 4 4 3 8 10 11 10 9 9
4 3 4 7 8 8 8 8 9 9 9 9 10 10 10 10 10 11 11 10 10 10 10 10 9 10 10 10 10 10 11 12 10 6 5 4 5 9 11 11 10 10 9
4 3 4 7 7 8 8 8 8 8 9 9 10 10 10 10 10 11 11 10 10 11 11 10 10 10 10 9 9 10 11 11 8 6 5 4 6 10 11 12 11 11 10
6 3 4 6 7 7 8 8 9 9 10 10 10 9 10 10 10 10 10 10 10 10 11 11 11 11 11 10 10 11 11 10 8 6 5 4 8 10 11 12 12 11 11
5 4 2 3 3 5 6 7 8 9 9 9 9 9 8 8 8 9 9 9 9 9 10 10 10 11 12 12 11 12 12 12 6 4 5 4 9 11 11 11 11 11 11
4 4 3 2 2 2 2 5 6 7 7 7 7 7 7 7 7 7 7 8 8 9 9 9 10 11 12 12 12 12 12 9 6 5 3 5 10 11 11 12 11 11 11
4 3 3 2 2 2 2 3 4 5 5 4 4 5 5 2 2 3 5 7 8 8 8 8 9 10 11 11 12 11 9 4 4 3 3 8 11 11 12 12 11 11 11
3 3 2 3 2 2 2 2 1 2 2 2 2 2 2 2 2 3 4 6 7 7 7 8 9 9 7 4 7 8 4 4 4 3 4 10 11 11 12 12 11 11 11
4 3 3 3 3 2 1 2 1 1 1 2 2 2 2 2 2 2 2 3 3 4 3 5 5 4 3 3 3 4 4 4 3 3 5 10 11 11 11 11 11 11 10
4 4 4 4 3 2 2 1 1 1 1 1 1 2 2 2 2 2 2 2 2 2 2 2 2 3 4 4 4 5 4 3 3 3 4 10 10 10 10 10 9 9 9
5 4 4 4 4 3 2 1 2 1 1 1 1 2 2 2 2 2 1 1 2 2 2 2 2 3 3 4 4 5 4 4 4 4 3 9 9 9 10 10 9 8 9
5 4 4 5 4 4 3 2 2 1 1 2 2 2 2 2 2 2 1 1 2 2 2 2 2 2 2 3 4 4 4 4 4 4 4 5 9 9 9 9 9 9 9
5 4 5 5 4 4 3 2 2 1 2 2 1 2 2 2 2 2 2 1 1 1 2 3 3 3 3 3 3 3 3 3 3 4 4 3 4 8 9 8 8 8 8
5 5 4 5 4 4 3 2 1 2 2 2 2 2 2 2 2 2 2 1 1 2 2 2 3 3 3 3 2 2 2 2 3 3 3 3 3 3 6 8 7 7 7
5 5 5 5 5 4 3 2 2 2 2 1 2 2 2 2 3 2 2 1 2 2 2 2 2 2 2 2 2 2 2 2 1 2 3 3 3 3 3 5 7 7 6
5 5 4 4 3 3 2 2 2 2 1 1 1 2 3 2 3 3 2 2 2 2 2 2 2 2 1 1 2 3 2 1 1 1 2 2 2 2 2 3 3 4 7
4 4 4 4 3 3 2 2 2 1 0 1 1 2 2 2 2 3 2 2 2 2 1 2 2 2 2 2 3 3 3 3 2 1 1 1 2 1 2 2 2 2 2
4 3 3 4 4 3 2 2 2 2 1 0 1 1 1 2 2 2 3 2 2 2 2 2 2 2 1 2 2 2 2 4 3 2 1 1 1 1 1 1 1 1 1
4 3 3 2 3 3 3 2 2 2 2 2 2 1 1 1 2 2 2 2 2 2 2 1 1 2 1 1 1 3 2 1 2 2 2 1 1 1 1 0 0 1 1
3 3 3 3 2 2 4 4 3 2 1 1 0 0 1 1 1 2 2 2 2 2 2 1 1 2 3 1 1 1 2 3 2 1 2 2 2 1 1 1 0 0 0
3 3 2 3 2 2 3 4 4 2 1 1 1 1 1 1 1 1 2 2 2 1 1 1 2 1 2 2 1 0 1 1 1 2 1 3 3 2 2 1 1 1 1
2 2 2 3 2 2 3 4 4 4 2 2 1 0 0 0 1 1 1 2 1 1 1 1 1 1 1 2 1 1 2 1 1 1 1 1 2 3 2 1 1 1 1
Wind_Direction
286 306 59 64 70 70 68 68 68 68 69 72 73 72 72 71 69 69 71 72 73 73 71 71 70 67 65 63 68 70 72 78 75 76 79 82 82 87 92 101 106 112 105
162 140 87 80 75 73 72 73 73 73 72 74 76 75 74 73 71 69 69 71 71 72 71 69 67 66 62 60 63 65 68 74 73 72 76 82 85 91 99 105 108 108 107
127 122 100 88 82 77 74 76 75 77 79 80 80 80 78 76 73 72 70 69 69 68 67 66 64 62 61 59 60 61 62 66 71 72 71 68 91 96 105 106 106 102 106
124 119 105 92 85 80 75 77 79 83 84 85 84 84 81 78 75 73 71 70 67 66 65 65 62 61 61 60 60 61 62 66 72 74 64 45 67 94 104 106 104 100 99
117 113 110 99 92 86 80 78 79 83 88 87 86 87 83 80 76 73 71 71 68 67 64 62 61 60 60 61 60 60 61 67 74 71 56 37 52 87 98 101 99 95 94
119 117 117 107 99 93 86 80 79 86 91 92 90 89 86 82 79 75 72 71 70 69 65 61 60 59 60 62 63 65 65 66 67 60 53 47 60 85 94 94 95 94 93
131 128 126 114 107 99 93 84 82 91 98 96 96 93 89 85 80 76 73 72 69 67 64 60 58 57 56 59 63 67 66 66 63 54 51 53 68 85 93 92 91 91 91
136 134 124 118 112 103 96 88 83 93 99 98 97 95 90 86 81 77 75 72 70 69 66 63 59 55 53 56 63 67 65 65 64 60 52 55 79 87 90 91 90 90 89
127 119 105 119 110 105 99 95 92 94 97 100 97 95 91 89 84 78 74 71 70 69 66 62 58 57 56 58 63 66 65 63 54 54 67 61 81 87 89 89 89 89 89
117 118 115 122 112 104 97 97 98 99 97 95 97 98 90 83 78 73 69 67 68 66 64 61 57 59 60 62 62 66 64 57 45 47 50 72 80 84 86 87 86 85 85
116 126 124 125 124 121 113 97 92 95 91 87 86 89 83 68 63 65 64 67 66 63 61 61 61 61 62 64 65 64 61 49 45 48 49 76 80 81 82 82 83 82 81
137 144 137 130 118 107 109 88 67 81 72 67 65 69 69 65 57 71 59 64 60 56 54 56 57 58 56 55 61 60 54 46 44 42 65 79 83 84 81 78 76 75 75
153 139 142 138 128 117 99 106 75 56 63 64 65 66 68 64 52 49 46 44 41 46 41 41 43 44 50 57 61 58 55 50 40 37 57 74 80 82 81 79 75 74 73
132 145 143 136 127 125 108 103 87 71 66 72 77 84 87 75 60 51 49 40 36 35 41 42 42 45 51 60 70 68 61 57 46 36 54 66 71 76 77 78 78 76 74
132 142 145 133 129 128 115 97 92 86 88 91 91 94 103 98 87 71 47 43 38 39 45 44 49 55 57 59 69 78 72 64 57 48 46 60 64 68 73 77 77 77 78
148 146 139 133 137 129 120 112 106 92 88 80 89 104 109 107 106 96 74 56 45 47 47 58 66 71 65 70 68 69 73 69 63 56 46 48 57 63 68 72 72 73 79
157 145 139 141 130 128 130 124 110 100 87 82 87 91 96 108 116 107 87 53 42 58 59 56 56 62 70 73 69 68 70 69 70 60 49 41 41 54 63 69 70 69 72
147 145 144 134 128 133 135 132 110 98 92 86 78 84 96 102 108 98 83 57 51 66 61 67 59 59 61 68 66 58 63 68 70 66 58 51 41 41 52 63 69 67 69
149 144 136 131 134 144 139 132 116 102 95 90 81 76 90 96 98 98 86 65 72 66 58 77 70 81 73 62 71 60 52 63 68 77 66 57 48 45 38 51 60 61 60
142 137 129 124 134 138 126 99 80 74 64 61 78 79 81 81 89 93 86 59 76 79 55 65 84 73 88 78 72 52 25 26 47 67 71 64 53 53 50 47 43 47 54
121 127 132 127 135 124 114 116 113 111 82 40 52 76 85 88 95 101 83 64 69 85 86 83 89 83 56 68 69 32 7 18 40 36 45 59 56 53 51 48 52 40 33
135 136 132 139 141 146 140 145 152 144 160 152 29 47 77 91 102 100 101 89 79 83 67 60 88 89 58 77 105 88 19 354 357 15 24 43 22 38 52 54 57 55 38
133 152 150 147 145 140 134 114 87 68 44 27 14 10 12 78 94 96 100 102 90 88 103 98 108 113 127 8 92 122 129 222 309 333 344 359 351 8 352 351 98 66 59
159 153 151 153 142 141 134 125 126 130 138 223 237 357 356 38 81 89 98 102 104 94 96 99 98 118 131 137 343 46 136 154 146 310 323 331 324 314 305 313 238 194 157
152 146 147 142 141 132 136 138 134 123 153 147 106 77 7 359 27 62 93 100 101 99 104 93 79 94 128 145 150 119 76 71 104 141 275 314 325 305 293 271 254 237 219
131 128 133 129 141 144 141 142 144 148 148 124 117 108 354 360 12 19 84 92 101 100 109 117 103 105 125 135 135 130 138 145 167 147 191 259 289 297 298 279 246 229 236